RH
56 62 65 66 65 66 70 72 77 81 86 84 83 85 84 84 80 87 87 84 90 94 88 93 95 95 97 96 97 96 97 99 99 98 99 99 96 95 92 92 91 93 92
54 61 64 64 64 67 69 70 78 82 82 83 84 85 88 82 82 87 86 84 88 93 88 86 91 90 96 96 97 97 97 99 99 98 100 100 100 97 92 94 92 88 91
51 58 62 65 67 69 71 72 77 82 82 82 83 86 90 82 84 83 82 82 83 90 85 80 91 90 94 96 98 97 97 97 98 99 98 99 100 98 99 98 95 94 90
53 56 64 66 68 70 72 77 80 80 80 81 82 87 85 79 81 81 77 79 76 80 77 73 77 83 96 93 97 98 97 96 98 98 98 97 98 98 100 100 98 94 97
54 57 62 63 65 70 74 75 77 78 74 74 81 88 85 76 73 82 78 76 71 76 75 68 69 73 79 79 86 95 97 97 96 97 96 96 97 97 97 99 99 100 97
58 61 61 61 64 72 77 76 76 77 83 82 84 88 90 71 71 78 70 72 69 89 76 71 64 73 80 74 72 69 75 97 91 91 90 92 92 93 96 98 99 93 97
60 56 57 60 63 70 68 70 74 77 84 81 84 84 88 74 71 76 70 68 70 82 79 85 68 71 88 69 70 68 70 77 97 87 90 90 84 87 86 90 98 87 96
60 59 58 62 65 65 70 78 68 70 82 74 82 78 74 61 70 72 71 70 71 70 70 78 80 89 83 71 72 72 72 75 85 82 89 85 82 84 80 78 85 94 88
65 66 63 64 65 64 67 70 62 68 67 63 60 64 63 63 71 78 76 71 69 71 65 81 79 90 79 76 77 76 75 77 68 70 72 73 75 76 77 72 82 86 96
70 69 66 65 71 62 70 64 57 56 51 50 50 61 62 65 70 79 78 73 75 72 79 70 81 79 77 77 80 80 83 84 79 77 73 75 76 76 76 76 84 86 97
68 66 69 71 63 58 62 54 51 54 56 55 53 60 64 65 67 72 82 79 74 75 79 79 86 78 76 81 78 76 79 77 79 78 80 83 80 79 77 78 76 86 87
72 75 80 82 53 47 59 62 56 63 60 57 56 66 70 65 68 72 78 77 72 82 88 86 87 75 74 82 77 75 79 83 82 83 84 88 87 86 82 84 79 78 84
80 88 87 61 60 58 64 69 71 74 66 60 60 73 76 67 72 78 81 76 73 86 82 77 77 75 76 83 76 78 89 90 92 92 92 92 86 82 79 83 78 77 80
91 74 62 63 59 67 72 72 79 80 74 67 70 79 83 75 81 89 88 88 81 88 88 91 88 83 82 83 85 84 89 91 92 95 94 89 82 82 86 86 86 86 89
60 55 59 65 63 65 68 84 79 82 72 76 85 82 90 87 83 81 87 94 89 88 88 86 88 88 88 86 84 82 85 84 90 93 93 92 89 87 88 83 83 88 90
52 59 65 65 66 65 68 71 64 72 55 57 57 72 83 65 66 71 82 86 76 77 84 89 91 91 92 91 90 88 87 90 91 91 92 92 93 93 94 89 87 93 95
47 54 60 60 58 71 72 71 78 73 61 60 58 63 62 63 67 72 72 73 71 76 89 90 92 93 94 92 93 93 94 93 90 92 94 94 94 93 95 94 93 93 92
58 67 65 73 80 82 84 81 81 85 87 80 63 62 66 65 69 72 74 73 85 82 89 92 93 93 94 94 93 93 92 91 92 93 94 94 94 95 95 95 95 97 97
48 54 63 64 65 65 65 67 66 68 69 68 68 69 71 68 70 74 77 86 92 90 91 90 92 92 93 94 94 94 95 95 95 95 94 94 94 95 94 96 94 96 96
48 64 68 59 62 66 64 64 65 71 72 72 74 77 76 76 85 89 87 92 91 91 92 92 92 92 93 94 94 94 94 93 94 94 95 94 94 95 96 95 95 96 96
56 56 68 60 66 69 68 67 71 81 81 80 79 80 85 82 85 89 89 92 92 92 92 93 91 91 91 92 92 93 93 94 94 94 94 94 95 96 94 95 95 89 90
54 60 63 68 69 82 78 70 79 82 82 86 85 79 88 86 85 86 88 92 93 93 92 95 91 93 92 93 93 94 93 93 92 93 94 94 95 94 94 94 91 91 90
59 64 67 74 76 84 90 87 89 92 91 90 90 89 86 92 92 88 92 93 91 94 92 92 92 90 90 92 92 94 94 94 94 95 95 94 94 94 94 94 92 92 93
70 77 74 89 95 96 95 95 94 94 94 94 96 95 94 94 96 91 92 92 91 93 92 92 92 92 91 91 91 92 92 94 93 95 96 95 95 93 93 93 90 90 91
84 92 94 95 97 97 97 96 95 97 97 97 96 97 94 95 92 95 93 92 90 91 91 91 90 91 91 90 88 89 90 92 92 95 90 91 94 92 92 93 90 89 89
81 85 94 97 97 97 97 98 97 97 98 98 98 98 98 96 95 98 93 92 90 90 91 89 88 92 90 88 86 87 89 89 90 93 88 90 93 92 90 92 88 90 89
Wind_Speed
6 5 6 6 6 6 6 6 6 6 5 5 7 8 9 11 14 13 13 12 13 11 7 12 10 13 10 11 10 10 8 5 3 3 2 4 6 8 8 7 7 6 8
5 6 6 6 6 6 7 7 7 6 6 6 7 7 8 11 15 14 15 14 12 10 8 10 11 10 13 13 10 13 11 9 4 6 4 3 4 8 6 8 7 7 7
6 6 6 7 6 7 7 8 7 6 6 7 6 7 7 11 15 16 15 15 13 7 6 11 9 14 13 12 11 9 10 9 8 4 5 3 2 8 3 4 8 8 8
6 6 6 7 6 7 7 7 7 8 7 7 6 6 8 11 14 16 15 15 16 5 9 12 12 14 13 14 10 9 9 9 7 6 4 5 3 6 4 4 5 7 7
6 6 6 6 6 7 7 9 9 8 8 8 6 5 8 11 14 17 14 14 14 9 10 12 12 19 25 20 11 9 10 8 6 6 6 6 6 6 9 6 4 2 5
6 6 5 6 5 7 7 9 9 9 8 8 6 5 6 10 28 28 21 13 13 7 10 11 12 17 19 23 22 21 15 10 8 7 7 9 9 6 6 6 4 5 3
7 8 8 8 7 8 9 9 10 11 7 10 7 7 6 13 29 28 27 12 12 11 9 8 11 10 14 13 18 18 17 20 12 7 8 5 6 8 7 9 7 6 4
7 8 8 8 7 8 9 9 11 9 8 9 8 8 9 13 28 29 25 12 11 11 10 11 12 11 14 15 13 12 11 12 12 8 7 5 6 7 6 5 4 2 3
7 7 7 8 8 9 10 10 10 10 10 11 10 12 12 13 28 28 20 11 11 11 11 10 13 12 21 22 12 12 12 13 14 19 20 21 21 19 13 7 8 6 3
6 6 6 6 6 8 8 9 9 9 10 9 11 12 18 14 24 27 22 10 12 10 10 11 19 18 22 23 12 12 12 13 12 12 11 13 14 14 17 10 4 6 2
5 5 6 7 4 6 7 7 9 9 8 10 10 10 12 15 16 27 26 12 11 10 10 10 9 24 23 23 20 13 15 11 11 9 8 8 9 9 9 9 9 4 3
6 5 6 7 4 5 7 6 7 7 9 11 12 10 9 11 20 23 25 25 22 11 11 9 11 23 23 22 16 23 20 11 8 8 8 8 9 9 8 8 8 7 3
6 7 5 6 5 5 5 5 4 5 7 9 10 9 10 10 10 23 22 24 22 11 10 17 22 22 21 14 23 23 13 9 8 9 9 8 8 7 9 9 9 9 7
3 4 6 5 6 5 4 3 4 4 5 7 8 9 8 9 10 10 9 10 17 12 11 10 11 14 12 11 10 12 9 9 9 8 7 7 7 8 8 7 7 8 5
5 5 6 5 5 5 3 3 4 2 4 4 4 7 8 9 12 19 17 11 11 12 9 7 9 10 11 10 10 11 10 10 10 9 9 8 8 8 8 7 7 5 5
5 4 4 4 4 4 4 5 11 10 11 19 21 13 7 19 24 26 23 23 25 20 10 10 11 10 11 11 11 10 10 11 10 9 8 8 8 8 7 7 6 4 5
5 4 4 4 4 4 4 5 6 8 9 14 23 22 23 22 25 26 24 21 24 17 11 10 10 10 10 10 10 10 10 9 10 8 8 8 8 8 8 6 7 5 6
5 8 4 2 3 4 4 4 4 4 5 6 14 19 22 23 24 26 25 15 11 14 10 10 10 10 10 9 10 10 9 9 9 8 8 8 8 8 8 8 8 7 6
4 4 4 4 4 5 4 5 6 6 6 7 7 10 13 22 22 23 23 11 10 11 10 10 10 9 9 9 9 9 9 8 9 8 9 9 9 8 8 7 7 7 7
4 5 5 4 4 4 4 6 6 6 6 7 8 10 10 10 11 12 11 10 10 9 10 10 10 9 9 9 9 9 8 9 9 9 9 8 9 8 8 8 8 8 7
3 4 6 4 4 4 4 6 5 4 6 7 7 9 12 9 10 9 10 10 10 10 11 10 10 10 10 10 9 9 8 8 8 8 8 9 9 8 8 8 7 8 8
3 4 5 4 4 4 4 5 4 5 6 7 6 8 10 8 9 9 9 9 10 9 9 9 10 9 10 9 9 9 9 9 9 9 9 8 8 8 7 7 8 7 8
4 5 4 4 3 4 4 4 4 4 5 6 6 7 7 7 8 8 8 9 9 9 9 10 10 11 10 9 9 9 9 10 10 9 8 8 8 8 7 8 7 8 8
5 5 4 3 3 2 3 3 3 5 4 5 5 5 5 5 5 8 8 8 8 9 9 9 10 13 11 11 10 10 9 10 9 9 10 8 8 9 7 8 8 9 8
4 3 3 3 3 2 3 3 3 3 3 3 4 4 4 4 6 6 7 7 8 8 10 9 10 12 14 16 16 17 16 19 15 14 8 9 9 11 9 8 8 8 8
4 4 3 3 3 3 3 3 3 3 3 2 3 3 3 4 4 4 6 7 8 8 9 8 11 14 15 13 16 18 18 18 16 18 9 9 9 10 8 9 12 8 10
Wind_Direction
19 24 11 15 24 18 1 343 335 341 354 339 336 336 346 358 349 341 337 332 327 327 336 348 3 348 342 342 335 343 339 326 359 16 320 328 343 6 26 24 31 26 41
25 35 8 12 22 14 357 343 336 345 334 329 327 337 9 357 351 346 338 333 328 328 328 3 4 354 352 348 337 351 348 349 334 5 345 332 7 353 19 34 27 24 24
34 29 11 11 18 6 350 339 334 328 322 322 330 349 15 0 353 347 343 338 332 321 353 3 16 2 353 347 340 346 352 350 12 354 4 329 316 6 347 21 29 29 29
37 27 15 12 19 356 338 331 329 321 320 323 334 18 14 1 3 352 347 344 346 14 21 7 8 7 355 347 336 352 357 357 359 10 357 359 354 357 357 15 32 34 29
33 30 12 10 16 347 339 332 326 325 332 346 1 46 20 11 8 0 354 352 358 19 24 9 5 6 5 0 356 355 355 1 1 14 19 20 14 0 6 344 19 356 31
35 21 18 5 7 344 329 329 327 329 338 357 12 26 35 13 10 7 7 356 357 15 22 12 2 0 1 0 5 7 13 5 4 15 19 24 16 7 354 2 1 25 11
39 20 19 4 1 346 336 336 343 349 356 4 8 14 29 12 12 9 8 1 357 359 17 3 359 353 1 2 358 4 6 7 10 8 7 357 353 354 353 9 12 67 55
39 18 13 359 349 345 345 350 1 355 3 5 13 13 30 12 10 8 10 359 358 352 2 359 356 352 9 12 358 2 6 8 13 23 17 336 332 321 4 2 7 71 71
32 16 4 349 352 359 2 9 5 3 14 10 13 12 21 12 7 6 9 0 359 348 355 353 5 4 14 18 7 8 8 10 7 19 28 26 21 16 17 12 27 26 38
23 354 342 344 5 23 12 18 6 9 11 5 9 13 10 7 359 7 9 358 359 352 352 11 2 17 19 21 16 12 14 7 4 8 15 17 16 9 15 20 3 30 11
1 342 341 335 32 44 28 27 9 5 0 8 7 9 5 3 357 8 8 8 4 351 9 7 0 17 20 23 26 24 20 2 5 11 15 18 15 11 9 5 14 20 42
340 335 336 328 43 53 49 15 8 1 6 11 8 7 358 357 357 4 9 19 12 357 10 7 5 17 22 20 26 25 15 7 9 13 19 18 12 8 0 358 1 14 30
332 335 1 14 47 43 50 14 359 1 15 13 11 360 350 355 359 2 3 17 16 7 13 15 13 16 15 12 18 15 9 9 11 15 19 11 0 352 357 4 10 18 25
324 18 20 27 31 40 30 2 355 16 19 17 10 357 348 355 1 3 7 10 11 11 6 5 5 12 13 11 8 11 10 10 11 8 7 354 355 3 13 6 8 9 13
69 47 35 30 26 19 11 320 331 44 45 8 350 349 348 4 10 17 16 16 19 10 5 13 17 17 15 12 8 9 7 11 12 7 6 4 5 2 3 2 8 2 20
41 45 42 27 9 12 13 353 1 53 65 43 30 20 355 19 19 19 22 21 25 17 18 22 18 13 10 3 3 5 6 8 6 3 3 2 1 358 348 352 359 355 358
56 56 57 33 10 14 3 16 25 356 14 24 26 21 18 23 23 22 20 21 25 22 26 19 15 8 4 1 1 2 0 3 357 0 358 356 353 348 344 348 351 349 355
50 37 38 26 24 20 8 8 23 15 0 360 19 18 18 23 24 24 20 12 18 20 20 14 10 2 0 0 1 0 358 359 359 353 351 349 350 348 343 349 350 356 359
54 24 23 45 32 28 20 24 25 18 16 16 13 16 12 17 23 23 19 20 8 11 8 8 3 1 3 2 360 358 358 355 350 347 347 346 346 345 336 352 0 1 358
72 43 56 61 35 13 35 35 24 18 20 20 24 17 4 7 18 16 13 9 6 2 4 3 1 5 1 4 1 358 354 352 350 349 344 340 338 333 349 353 358 2 4
79 58 70 63 50 20 51 41 21 15 27 23 23 20 9 18 17 12 7 3 359 352 0 1 8 4 5 2 0 356 352 345 344 342 339 336 335 351 352 355 359 11 10
71 78 64 60 47 43 43 50 30 29 33 26 19 20 11 20 18 12 7 360 354 350 359 360 11 5 6 0 356 351 349 346 341 340 335 332 346 355 353 1 9 11 12
85 90 75 50 59 46 49 36 34 34 34 29 21 22 19 16 11 8 359 353 352 351 2 5 12 8 7 1 356 352 347 343 336 328 330 349 351 359 358 3 9 9 9
82 85 99 91 45 51 56 50 32 39 38 35 18 18 18 10 357 2 356 349 352 351 2 4 4 11 3 6 358 354 348 345 340 328 344 353 354 359 3 4 12 7 10
100 95 102 99 69 63 55 55 44 27 32 42 22 14 17 7 8 357 347 347 350 350 355 358 2 360 3 4 3 359 352 353 354 347 4 2 5 10 11 11 14 9 11
109 98 95 92 74 69 76 68 68 29 32 24 22 9 22 12 355 342 345 351 355 349 349 356 355 353 1 5 2 1 359 359 359 353 10 11 15 18 15 15 19 19 17